Regional Weather Roundup
Issued by NWS

Home | Current Version | Previous Version | Graphics & Text | Print | Product List | Glossary On
Versions: 1 2 3 4 5 6 7 8 9 10 11 12 13 14 15 16 17 18 19 20 21 22 23 24 25 26 27 28 29 30 31 32 33 34 35 36 37 38 39 40 41 42 43 44 45 46 47 48 49 50
000
ASUS43 KMPX 170601
RWRMN
WEATHER ROUNDUP FOR MINNESOTA
NATIONAL WEATHER SERVICE TWIN CITIES/CHANHASSEN MN
100 AM CDT THU APR 17 2014


NOTE: "FAIR" INDICATES FEW OR NO CLOUDS BELOW 12,000 FEET WITH NO
SIGNIFICANT WEATHER AND/OR OBSTRUCTIONS TO VISIBILITY. N/A MEANS
CURRENT SKY AND/OR WEATHER CONDITIONS ARE NOT AVAILABLE.

MNZ060>063-068>070-170700-
   Twin Cities Metro

CITY           SKY/WX    TMP DP  RH WIND       PRES   REMARKS
TWIN CITIES    LGT SNOW  28  28 100 N17       29.97R FOG     WCI  16
6HR MIN TEMP:  28; 6HR MAX TEMP:  33; 6HR PCP:  0.54;

ST PAUL        LGT SNOW  30  28  92 N15G23    29.98R FOG     WCI  19
CRYSTAL        LGT SNOW  28  26  92 N14       29.99R FOG     WCI  17
BLAINE         LGT SNOW  30  30 100 N17G23    29.99R WCI  18
EDEN PRAIRIE   CLOUDY    30  27  88 N15G25    29.95R WCI  19
6HR MIN TEMP:  30; 6HR MAX TEMP:  34; 6HR PCP:  0.28;

LAKEVILLE      MIX PCPN  30  28  93 N17       29.92R WCI  18
SOUTH ST PAUL  LGT SNOW  34  33  96 N16G22    29.95R WCI  24
LAKE ELMO      LGT SNOW  32  32 100 N10       29.97R WCI  24
$$
MNZ001>005-007-008-013>017-022>024-027-028-170700-
   Northwest Minnesota

CITY           SKY/WX    TMP DP  RH WIND       PRES   REMARKS
BEMIDJI        FAIR      23  12  61 N5        30.22R WCI  17
HALLOCK        CLOUDY    27  12  54 NE10      30.33R WCI  17
ROSEAU         FAIR      25  12  58 NE5       30.31R WCI  19
WARROAD        FAIR      25   7  46 N7        30.31R WCI  17
THIEF RVR FALL FAIR      28   9  43 NE9       30.28R WCI  20
CROOKSTON      FAIR      25  18  74 N10       30.30R WCI  15
FOSSTON        FAIR      25  10  54 NE9       30.24S WCI  15
DETROIT LAKES  FAIR      27  21  80 N6        30.22R WCI  20
MOORHEAD       FAIR      28  23  80 N9        30.25R WCI  20
PARK RAPIDS    FAIR      25  19  78 N8        30.18S WCI  16
$$
MNZ006-009>011-018-025>026-170700-
   North Central Minnesota

CITY           SKY/WX    TMP DP  RH WIND       PRES   REMARKS
BAUDETTE       FAIR      26   8  46 NE8       30.28R WCI  18
FLAG ISLAND    FAIR      23   7  50 N6        30.31S WCI  16
INTL FALLS     MOCLDY    26   8  46 NE6       30.26S WCI  19
6HR MIN TEMP:  26; 6HR MAX TEMP:  36;

WASKISH        FAIR      25  10  54 NE5       30.25S WCI  19
LONGVILLE      FAIR      25  19  80 N5        30.18S WCI  19
GRAND RAPIDS   CLOUDY    25  18  74 NE7       30.18R WCI  17
CRANE LAKE     CLOUDY    25  16  68 CALM      30.26S
ORR            MOCLDY    25  14  63 CALM      30.20S
COOK           CLOUDY    25  18  74 NE3       30.21S
$$
MNZ012-019>021-037-170700-
   Northeast Minnesota

CITY           SKY/WX    TMP DP  RH WIND       PRES   REMARKS
DULUTH         SNOW      27  23  85 NE22G28   30.11F VSB 1/2 WCI  13
6HR MIN TEMP:  26; 6HR MAX TEMP:  27; 6HR PCP:  0.10;

ELY            LGT SNOW  23  19  86 NE6       30.20F WCI  16
HIBBING        LGT SNOW  26  20  77 NE8       30.18S WCI  18
EVELETH        MIX PCPN  25  21  86 NE8       30.18S WCI  16
DULUTH HARBOR  LGT SNOW  30  28  93 NE23G30   30.15S VSB 1   WCI  17
TWO HARBORS    LGT SNOW  27  21  80 NE14G22   30.13S WCI  15
SILVER BAY     LGT SNOW  27  27 100 NE16G28   30.15F VSB 3/4 WCI  14
GRAND MARAIS     N/A     29  26  89 NE18G25   30.26S WCI  16
G MARAIS ARPRT LGT SNOW  23  19  86 NE15      30.20S WCI  10
$$
MNZ029>031-032-039>041-046>048-054>057-064-170700-
   West Central Minnesota

CITY           SKY/WX    TMP DP  RH WIND       PRES   REMARKS
FERGUS FALLS   FAIR      27  18  69 N6        30.20R WCI  20
WHEATON        FAIR      27  21  80 NW6       30.23R WCI  20
MORRIS         FAIR      25  18  74 N12       30.16R WCI  14
ALEXANDRIA     FAIR      24  19  81 N13       30.15R WCI  12
ELBOW LAKE     FAIR      26  21  82 NE9       30.18R WCI  16
WADENA         FAIR      23  18  80 N9        30.17R WCI  13
GLENWOOD       FAIR      25  19  80 N12       30.14R WCI  14
APPLETON       FAIR      25  19  80 N12       30.18R WCI  14
BENSON         FAIR      25  19  80 N9        30.15R WCI  15
ORTONVILLE     FAIR      21  18  86 N8        30.19R WCI  12
MADISON        FAIR      28  23  80 N10       30.18R WCI  19
WILLMAR        CLOUDY    28  23  80 N18       30.11R WCI  16
$$
MNZ033>034-036-042>043-049>051-058-059-170700-
   Central Minnesota

CITY           SKY/WX    TMP DP  RH WIND       PRES   REMARKS
ST CLOUD       CLOUDY    29  23  78 N13G21    30.07R WCI  19
6HR MIN TEMP:  29; 6HR MAX TEMP:  29; 6HR PCP:  0.05;

SAUK CENTRE    CLOUDY    27  21  79 N14G20    30.12R WCI  15
PAYNESVILLE    CLOUDY    28  22  80 N13G21    30.10R WCI  17
AITKIN         FLURRIES  28  21  74 N14       30.13R WCI  17
PINE RIVER     FAIR      25  19  80 N8        30.20S WCI  16
BRAINERD       CLOUDY    30  20  66 N15       30.15R WCI  19
STAPLES        FAIR      21  18  86 N7        30.16S WCI  13
LONG PRAIRIE   CLOUDY    25  19  80 N13       30.13R WCI  13
LITTLE FALLS   CLOUDY    28  21  74 N6        30.12R WCI  22
LITCHFIELD     CLOUDY    28  27  93 N17G23    30.07R WCI  16
BUFFALO        CLOUDY    29  25  84 N14G23    30.04R WCI  18
MAPLE LAKE     CLOUDY    30  27  87 N14G24    30.06R WCI  19
$$
MNZ037-044-045-052-053-170700-
   East Central Minnesota

CITY           SKY/WX    TMP DP  RH WIND       PRES   REMARKS
PRINCETON      CLOUDY    30  25  80 N14G23    30.06R WCI  20
MORA           FLURRIES  30  25  80 NE7       30.07S WCI  23
CAMBRIDGE      FLURRIES  30  23  74 N12G21    30.02S WCI  21
RUSH CITY      MIX PCPN  28  26  93 N14G23    30.04S WCI  16
MOOSE LAKE     LGT SNOW  28  27  93 NE12G21   30.09S WCI  18
HINCKLEY       LGT SNOW  30  28  93 NE14      30.06S WCI  20
CLOQUET        LGT SNOW  27  25  93 NE15G23   30.11S WCI  15
MCGREGOR       CLOUDY    27  23  86 N10       30.14S WCI  17
$$
MNZ071>073-080-081-089-090-097-098-170700-
   Southwest Minnesota

CITY           SKY/WX    TMP DP  RH WIND       PRES   REMARKS
MONTEVIDEO     FAIR      25  21  86 N12       30.16R WCI  14
GRANITE FALLS  CLOUDY    28  23  81 NW15G21   30.15R WCI  16
CANBY          CLOUDY    28  24  83 N13G18    30.18R WCI  18
MARSHALL       CLOUDY    28  21  74 N18G24    30.12R WCI  16
REDWOOD FALLS  CLOUDY    29  24  82 N15G23    30.09R WCI  18
OLIVIA         CLOUDY    30  27  86 N14       30.08R WCI  20
PIPESTONE      CLOUDY    28  25  86 N12G18    30.11R WCI  18
WINDOM         CLOUDY    28  27  93 NW23G29   30.06R WCI  14
WORTHINGTON    CLOUDY    28  19  69 N23G29    30.08S WCI  14
JACKSON        CLOUDY    30  27  86 N21G29    30.03R WCI  17
TRACY          CLOUDY    29  25  87 N16G23    30.11R WCI  17
SLAYTON        CLOUDY    27  25  91 N18G24    30.09R WCI  14
$$
MNZ065>067-074>077-082>085-091>093-170700-
   South Central Minnesota

CITY           SKY/WX    TMP DP  RH WIND       PRES   REMARKS
MANKATO        CLOUDY    30  27  86 N20G30    29.97R WCI  18
NEW ULM        CLOUDY    28  27  93 N14G25    30.03R WCI  17
ST JAMES       CLOUDY    30  27  86 NW23      30.04R WCI  17
FAIRMONT       CLOUDY    30  25  80 NW23G29   30.02R WCI  17
GLENCOE        CLOUDY    30  25  79 N18G25    30.01R WCI  18
FARIBAULT      DRIZZLE   36  30  80 NW15      29.90R
OWATONNA       DRIZZLE   34  34 100 NW18      29.88R WCI  23
WASECA         CLOUDY    34  32  93 NW23      29.93R WCI  22
ALBERT LEA     CLOUDY    34  34 100 NW12G18   29.88R FOG     WCI  25
$$
MNZ078>079-086>088-094>096-170700-
   Southeast Minnesota

CITY           SKY/WX    TMP DP  RH WIND       PRES   REMARKS
ROCHESTER      LGT RAIN  44  33  65 S16G25    29.82R
6HR MIN TEMP:  44; 6HR MAX TEMP:  50; 6HR PCP:  0.03;

RED WING       LGT RAIN  43  39  87 NE7       29.89S
STANTON        DRIZZLE   38  37  92 N15       29.89R
DODGE CENTER   DRIZZLE   45  39  81 SE6       29.82R
WINONA         CLOUDY    50  30  46 SE9       29.87F
AUSTIN         DRIZZLE   37  36  93 W21G28    29.83R
PRESTON        CLOUDY    47  32  56 S22G30    29.82F
$$
ABBREVIATIONS USED IN REMARKS
   TC - TEMPERATURES IN CELSIUS
  WCI - WIND CHILL INDEX
   HX - HEAT INDEX
  VSB - VISIBILITY
$$



USA.gov is the U.S. government's official web portal to all federal, state and local government web resources and services.